Terminal Aerodrome Forecast
Issued by NWS Knoxville/Tri Cities, TN

Home | Current Version | Previous Version | Text Only | Print | Product List | Glossary On
Versions: 1 2 3 4 5 6 7 8 9 10 11 12 13 14 15 16 17 18 19 20 21 22 23 24 25 26 27 28 29 30 31
000
FTUS44 KMRX 280524
TAFTRI
TAF
KTRI 280524Z 2806/2906 00000KT P6SM SCT070
     FM280800 00000KT 5SM BR FEW060
      TEMPO 2810/2813 3SM BR BKN035
     FM281400 13003KT P6SM SCT040=

USA.gov is the U.S. government's official web portal to all federal, state and local government web resources and services.